Starlink 5842

operational
NORAD ID: 56491 Int'l Des: 2023-064 Owner: SPXS Country: US Constellation: starlink
LEOCIRCULAR

About Starlink 5842

Description loading...

Live Position

Loading 3D Globe...

Upcoming Passes

Altitude History

Altitude vs Time

uPlot chart will show altitude changes over time

Two-Line Element Set

1 56491U 23064AV 25303.78224422 .00001023 00000-0 93497-4 0 9996
2 56491 69.9990 71.9975 0003149 270.9733 89.1065 14.98336775136771
Epoch: Oct 30, 2025 • Age: 7 hours

Current Status

Altitude 583.6 km
Velocity 7.57 km/s
Sub-Earth Point 59.71°N, 47.8°E
Launch Date May 10, 2023
Age 2.4 years
Type internet

Technical Details

Classification Payload
Mass 305.00 kg
Dry Mass 290.00 kg
Total Mass 305.00 kg
Length 0.20 m
Diameter 2.80 m
Span 9.00 m
Shape Box + pan
Manufacturer SPXS
Bus Type Starlink
Phase Status In Orbit
Owner/State SPXS/US

Large Constellations

Loading constellations...